[[{"header":{"parameterUnit":"m.s-1","parameterCategory":1,"la1":30.2991,"la2":30.254,"lo1":-89.0895,"lo2":-89.0444,"dy":0.0017,"dx":0.0017,"nx":28,"ny":28,"refTime":"2025-01-24T03:00:00:Z","depth":0,"parameterNumber":2,"parameterNumberName":"U-component_of_WINDS"},"data":[0,0,0,0,0,0,0,0,0,0,0,0,0,0,0,0,0,0,0,0,0,0,0,0,0,0,0,0,0,0,0,0,0,0,0,0,0,0,0,0,0,0,0,0,0,0,0,0,0,0,0,0,0,0,0,0,0,0,-3.1093,-3.1094,0,-3.1154,-3.1154,-3.1155,-3.1089,-3.1087,-3.1084,-3.1082,-3.1142,-3.1146,-3.115,0,0,0,0,0,0,0,0,0,0,0,0,0,-3.0917,-3.092,-3.1093,-3.1094,-3.1095,-3.1154,-3.1154,-3.1155,-3.109,-3.1087,-3.1084,-3.1081,-3.1141,-3.1145,-3.115,0,0,0,0,0,0,0,0,0,0,0,0,0,-3.0987,-3.0922,-3.1093,-3.1069,-3.1068,-3.1153,-3.1154,-3.1155,-3.109,-3.1087,-3.1083,-3.1079,-3.1139,-3.1145,-3.1151,-3.1262,0,0,-3.1169,-3.1171,0,0,0,0,0,0,0,0,-3.0983,-3.0994,-3.1072,-3.1071,-3.1069,-3.111,-3.1114,-3.1191,-3.1091,-3.1082,-3.1082,-3.1078,-3.1134,-3.114,-3.116,-3.1265,-3.1268,-3.1169,-3.1173,-3.1175,-3.1177,0,0,0,0,0,0,0,-3.0978,-3.0991,-3.1117,-3.1073,-3.1071,-3.1054,-3.106,-3.1128,-3.1128,-3.1082,-3.1078,-3.1086,-3.1133,-3.1154,-3.1161,-3.1268,-3.1169,-3.1174,-3.1178,-3.118,-3.1465,-3.1468,0,0,0,0,0,0,-3.0977,-3.0987,-3.1115,-3.1119,-3.1016,-3.106,-3.1067,-3.1101,-3.1127,-3.1128,-3.1089,-3.1083,-3.1146,-3.1154,-3.1163,-3.1292,-3.1175,-3.1181,-3.1184,-3.1461,-3.1466,-3.147,0,0,0,0,0,0,-3.0973,-3.0989,-3.1112,-3.1052,-3.1066,-3.1067,-3.1106,-3.1104,-3.1125,-3.1132,-3.1132,-3.1111,-3.1143,-3.1154,-3.1237,-3.1293,-3.1183,-3.1189,-3.1456,-3.1462,-3.1468,-3.1554,0,0,0,0,0,0,-3.0968,-3.0988,-3.1031,-3.1053,-3.107,-3.1188,-3.111,-3.1108,-3.1136,-3.1128,-3.1153,-3.1154,-3.1141,-3.1229,-3.1243,-3.13,-3.1193,-3.1451,-3.1459,-3.1466,-3.1546,-3.1563,-3.1576,0,0,0,0,0,-3.0962,-3.1053,-3.1034,-3.105,-3.1124,-3.1191,-3.12,-3.1185,-3.1141,-3.1183,-3.1188,-3.1153,-3.1286,-3.1238,-3.1253,-3.1313,-3.1447,-3.1456,-3.1465,-3.154,-3.1559,-3.1576,0,0,0,0,0,0,-3.1038,-3.1056,-3.1034,-3.1136,-3.1162,-3.118,-3.1233,-3.1207,-3.1246,-3.1237,-3.1216,-3.1222,-3.1309,-3.132,-3.1266,-3.142,-3.1359,-3.1372,-3.141,-3.1429,-3.1444,-3.1438,-3.1198,0,0,0,0,0,-3.1066,-3.112,-3.1133,-3.1221,-3.1235,-3.1232,-3.1261,-3.1247,-3.1273,-3.1284,-3.1294,-3.1321,-3.1367,-3.1399,-3.1443,-3.1548,-3.1551,-3.1596,-3.1611,-3.1624,-3.1634,-3.1687,-3.1706,-3.15,-3.15,-3.1499,0,0,-3.1126,-3.1142,-3.1178,-3.1236,-3.1255,-3.131,-3.1242,-3.1304,-3.1343,-3.1293,-3.1371,-3.138,-3.1408,-3.1501,-3.1543,-3.1512,-3.1692,-3.1635,-3.1645,-3.1649,-3.1698,-3.1718,-3.1735,-3.1506,-3.1505,-3.1504,0,0,-3.1261,-3.128,-3.1354,-3.1374,-3.1404,-3.1401,-3.1419,-3.144,-3.1444,-3.1523,-3.1485,-3.1532,-3.1615,-3.1635,-3.1656,-3.1797,-3.1765,-3.1813,-3.189,-3.1942,-3.1958,-3.1972,-3.202,-3.2037,-3.1823,-3.1824,-3.1824,0,-3.1331,-3.1412,-3.1395,-3.1459,-3.1484,-3.1442,-3.1515,-3.1536,-3.1578,-3.1596,-3.1562,-3.1663,-3.1679,-3.1775,-3.1809,-3.1829,-3.1846,-3.1808,-3.1957,-3.1971,-3.1984,-3.2029,-3.2047,-3.1829,-3.1828,-3.1828,-3.1827,0,-3.1495,-3.1552,-3.1608,-3.165,-3.1682,-3.175,-3.1742,-3.1777,-3.1759,-3.176,-3.1838,-3.1856,-3.1902,-3.1924,-3.1908,-3.2017,-3.1997,-3.1961,-3.1898,-3.201,-3.2051,-3.2069,-3.1836,-3.1834,-3.1833,-3.1832,0,0,-3.1679,-3.171,-3.173,-3.1747,-3.1776,-3.1819,-3.1885,-3.1929,-3.1958,-3.1989,-3.2041,-3.2111,-3.2077,-3.2101,-3.2087,-3.2133,-3.224,-3.209,-3.2091,-3.2115,-3.2358,-3.2383,-3.2403,-3.222,-3.2223,-3.2226,-3.2354,0,-3.1812,-3.1926,-3.1912,-3.202,-3.2071,-3.2031,-3.2087,-3.211,-3.2112,-3.2154,-3.2156,-3.2205,-3.2157,-3.2171,-3.2215,-3.2218,-3.2288,-3.2209,-3.2266,-3.2268,-3.2258,-3.2426,-3.2453,-3.2573,-3.2371,-3.2374,-3.2376,0,-3.1983,-3.2019,-3.2132,-3.2151,-3.2172,-3.2223,-3.2261,-3.2303,-3.2327,-3.2325,-3.2352,-3.2329,-3.2392,-3.233,-3.2416,-3.2362,-3.2385,-3.239,-3.2394,-3.2397,-3.2327,-3.243,-3.2612,-3.2629,-3.2402,-3.24,-3.2398,0,-3.2102,-3.2179,-3.2256,-3.2272,-3.2297,-3.2333,-3.2345,-3.2366,-3.2393,-3.2426,-3.2443,-3.2484,-3.2506,-3.2537,-3.2525,-3.2482,-3.2612,-3.255,-3.261,-3.261,-3.2637,-3.2635,-3.2822,-3.2657,-3.2656,-3.2656,-3.2656,0,-3.2251,-3.2321,-3.2309,-3.2356,-3.2433,-3.2415,-3.2491,-3.2498,-3.2516,-3.2562,-3.2531,-3.2575,-3.2558,-3.26,-3.2591,-3.2662,-3.2673,-3.2671,-3.2667,-3.2672,-3.2672,-3.2685,-3.2675,-3.2661,-3.266,-3.2659,-3.2658,0,-3.2396,-3.2392,-3.2472,-3.2488,-3.2494,-3.2549,-3.2562,-3.2605,-3.2605,-3.2663,-3.2676,-3.2674,-3.2722,-3.2714,-3.2768,-3.2761,-3.2848,-3.2836,-3.284,-3.2836,-3.2895,-3.2888,-3.3095,-3.3119,-3.2941,-3.2943,-3.2944,0,-3.249,-3.2543,-3.2564,-3.2593,-3.2607,-3.2655,-3.2682,-3.2666,-3.2696,-3.2726,-3.2765,-3.281,-3.2845,-3.2923,-3.2926,-3.2966,-3.2952,-3.3022,-3.2958,-3.296,-3.2949,-3.2945,-3.2949,-3.3034,-3.3036,-3.3037,-3.3039,0,-3.2656,-3.2651,-3.2691,-3.2731,-3.2764,-3.2794,-3.2822,-3.2847,-3.2833,-3.2868,-3.2916,-3.2943,-3.2997,-3.3041,-3.3078,-3.3089,-3.3061,-3.3059,-3.3074,-3.3079,-3.3077,-3.3076,-3.2871,-3.3054,-3.3052,-3.3051,-3.305,-3.305,-3.2776,-3.282,-3.2842,-3.2887,-3.2906,-3.2931,-3.2972,-3.2976,-3.3016,-3.3059,-3.3047,-3.3101,-3.3122,-3.3169,-3.3184,-3.3225,-3.3199,-3.3222,-3.3227,-3.3232,-3.3238,-3.3073,-3.3232,-3.3231,-3.3231,-3.3231,-3.323,0,-3.2938,-3.295,-3.2992,-3.303,-3.3065,-3.3037,-3.3065,-3.3096,-3.3144,-3.3167,-3.3201,-3.3256,-3.3298,-3.3304,-3.3344,-3.3375,-3.3363,-3.3386,-3.3382,-3.3384,-3.3261,-3.3242,-3.3395,-3.3395,-3.3395,-3.3395,-3.3395,-3.3395,-3.3026,-3.3098,-3.3095,-3.3174,-3.3185,-3.3238,-3.3256,-3.3279,-3.3296,-3.3358,-3.3393,-3.3397,-3.3412,-3.3452,-3.3489,-3.3489,-3.3504,-3.3531,-3.3526,-3.341,-3.3393,-3.3378,-3.336,-3.3535,-3.3535,-3.3646,-3.3647,-3.3648]},{"header":{"parameterUnit":"m.s-1","parameterCategory":1,"la1":30.2991,"la2":30.254,"lo1":-89.0895,"lo2":-89.0444,"dy":0.0017,"dx":0.0017,"nx":28,"ny":28,"refTime":"2025-01-24T03:00:00:Z","depth":0,"parameterNumber":3,"parameterNumberName":"V-component_of_WINDS"},"data":[0,0,0,0,0,0,0,0,0,0,0,0,0,0,0,0,0,0,0,0,0,0,0,0,0,0,0,0,0,0,0,0,0,0,0,0,0,0,0,0,0,0,0,0,0,0,0,0,0,0,0,0,0,0,0,0,0,0,-0.6896,-0.6896,0,-0.6963,-0.6964,-0.6965,-0.7008,-0.7008,-0.7009,-0.7009,-0.7078,-0.708,-0.7081,0,0,0,0,0,0,0,0,0,0,0,0,0,-0.6804,-0.6806,-0.6896,-0.6897,-0.6897,-0.6963,-0.6964,-0.6965,-0.7008,-0.7008,-0.7009,-0.7009,-0.7077,-0.7079,-0.7081,0,0,0,0,0,0,0,0,0,0,0,0,0,-0.6855,-0.6806,-0.6896,-0.6927,-0.693,-0.6963,-0.6964,-0.6965,-0.7008,-0.7008,-0.7009,-0.7009,-0.7077,-0.7079,-0.7081,-0.7088,0,0,-0.7089,-0.709,0,0,0,0,0,0,0,0,-0.6852,-0.6858,-0.6921,-0.6925,-0.6929,-0.6978,-0.6957,-0.7006,-0.7008,-0.6979,-0.7009,-0.7009,-0.7044,-0.7049,-0.7061,-0.7091,-0.7094,-0.7089,-0.709,-0.7091,-0.7092,0,0,0,0,0,0,0,-0.6848,-0.6856,-0.6922,-0.6922,-0.6927,-0.6937,-0.6945,-0.6966,-0.7008,-0.6981,-0.6984,-0.6992,-0.7046,-0.7059,-0.7063,-0.7095,-0.7089,-0.7091,-0.7092,-0.7093,-0.7133,-0.7132,0,0,0,0,0,0,-0.684,-0.6852,-0.692,-0.6924,-0.6891,-0.6939,-0.6947,-0.6962,-0.7008,-0.7016,-0.6991,-0.6994,-0.7054,-0.706,-0.7066,-0.7075,-0.7091,-0.7094,-0.7095,-0.7133,-0.7133,-0.7132,0,0,0,0,0,0,-0.6838,-0.6846,-0.6918,-0.6889,-0.6899,-0.694,-0.6955,-0.6963,-0.6975,-0.7016,-0.7024,-0.6996,-0.7055,-0.7062,-0.7082,-0.7078,-0.7095,-0.7097,-0.7133,-0.7133,-0.7132,-0.7095,0,0,0,0,0,0,-0.6835,-0.6845,-0.6848,-0.6889,-0.6901,-0.6933,-0.6955,-0.6964,-0.6979,-0.6983,-0.7023,-0.703,-0.7056,-0.7078,-0.7084,-0.7082,-0.7099,-0.7134,-0.7133,-0.7132,-0.7097,-0.7093,-0.709,0,0,0,0,0,-0.6832,-0.6835,-0.6848,-0.6856,-0.6905,-0.6932,-0.6939,-0.6969,-0.6979,-0.6982,-0.7008,-0.7028,-0.7078,-0.708,-0.7087,-0.7085,-0.7134,-0.7133,-0.7133,-0.7098,-0.7094,-0.7091,0,0,0,0,0,0,-0.6792,-0.6841,-0.6856,-0.6872,-0.6898,-0.694,-0.6945,-0.6964,-0.6987,-0.699,-0.7026,-0.7034,-0.705,-0.707,-0.7071,-0.7093,-0.7108,-0.7109,-0.708,-0.7076,-0.7073,-0.7068,-0.7101,0,0,0,0,0,-0.6786,-0.6804,-0.6845,-0.6856,-0.6868,-0.6904,-0.6917,-0.6938,-0.6966,-0.6977,-0.7004,-0.703,-0.7052,-0.7065,-0.7087,-0.71,-0.7109,-0.7103,-0.7099,-0.7096,-0.7096,-0.7103,-0.7101,-0.7129,-0.7129,-0.7129,0,0,-0.6772,-0.6801,-0.681,-0.6849,-0.6871,-0.6888,-0.6913,-0.6931,-0.6944,-0.6979,-0.6999,-0.702,-0.7052,-0.7068,-0.7076,-0.7085,-0.709,-0.7095,-0.7093,-0.7094,-0.7102,-0.7099,-0.7097,-0.7129,-0.7129,-0.7129,0,0,-0.6756,-0.678,-0.6791,-0.6812,-0.6845,-0.6869,-0.6872,-0.6911,-0.6926,-0.6946,-0.6973,-0.6989,-0.7025,-0.7047,-0.7062,-0.7052,-0.7072,-0.7059,-0.7042,-0.7048,-0.7046,-0.7044,-0.704,-0.7038,-0.7059,-0.7058,-0.7058,0,-0.6735,-0.6762,-0.6794,-0.681,-0.6826,-0.6858,-0.6869,-0.6889,-0.6927,-0.6937,-0.6947,-0.6992,-0.7016,-0.7036,-0.7034,-0.7046,-0.7049,-0.7054,-0.7044,-0.7042,-0.7041,-0.7037,-0.7036,-0.7057,-0.7057,-0.7057,-0.7057,0,-0.6734,-0.6753,-0.6757,-0.6793,-0.681,-0.6823,-0.6857,-0.6869,-0.6888,-0.6911,-0.6931,-0.696,-0.6988,-0.6995,-0.7014,-0.7018,-0.7022,-0.7037,-0.7052,-0.7036,-0.7033,-0.7032,-0.7054,-0.7055,-0.7055,-0.7056,0,0,-0.6696,-0.6748,-0.6749,-0.6765,-0.6804,-0.6819,-0.6833,-0.686,-0.687,-0.6895,-0.6908,-0.6937,-0.6951,-0.6968,-0.699,-0.6996,-0.6985,-0.701,-0.7011,-0.7004,-0.699,-0.6978,-0.6976,-0.6998,-0.6998,-0.6998,-0.6987,0,-0.6685,-0.6712,-0.6741,-0.6758,-0.6775,-0.6806,-0.6818,-0.6843,-0.6864,-0.6881,-0.6905,-0.6925,-0.6942,-0.6952,-0.696,-0.6985,-0.6983,-0.6986,-0.701,-0.701,-0.7,-0.6974,-0.6962,-0.695,-0.6986,-0.6986,-0.6986,0,-0.6676,-0.6699,-0.6717,-0.6753,-0.6761,-0.6772,-0.6798,-0.6815,-0.6843,-0.6858,-0.6877,-0.69,-0.6916,-0.693,-0.6952,-0.6954,-0.6965,-0.6979,-0.6979,-0.6982,-0.6996,-0.6976,-0.6947,-0.6945,-0.6985,-0.6985,-0.6985,0,-0.6644,-0.668,-0.6696,-0.6709,-0.6751,-0.6758,-0.6776,-0.6804,-0.6818,-0.6842,-0.6851,-0.6876,-0.6889,-0.6908,-0.6936,-0.6944,-0.6955,-0.6972,-0.6968,-0.6967,-0.6968,-0.6968,-0.694,-0.6976,-0.6977,-0.6977,-0.6977,0,-0.6629,-0.6639,-0.6682,-0.6692,-0.6703,-0.6736,-0.6747,-0.6767,-0.6792,-0.6806,-0.6835,-0.6847,-0.6884,-0.6901,-0.6924,-0.6938,-0.6944,-0.6956,-0.6962,-0.6953,-0.6952,-0.6961,-0.6962,-0.6976,-0.6976,-0.6976,-0.6976,0,-0.6596,-0.6625,-0.6644,-0.6682,-0.6692,-0.6699,-0.6732,-0.6742,-0.6764,-0.6781,-0.6787,-0.6823,-0.6843,-0.6874,-0.6904,-0.6919,-0.693,-0.694,-0.692,-0.6923,-0.6917,-0.6917,-0.6894,-0.6893,-0.693,-0.693,-0.693,0,-0.6583,-0.6592,-0.663,-0.6641,-0.6658,-0.6676,-0.669,-0.6722,-0.6736,-0.6768,-0.6774,-0.6797,-0.6817,-0.6849,-0.6877,-0.69,-0.691,-0.6901,-0.6914,-0.6904,-0.6909,-0.6908,-0.6908,-0.6897,-0.6897,-0.6896,-0.6896,0,-0.6558,-0.6572,-0.6591,-0.6615,-0.6631,-0.6652,-0.6674,-0.6682,-0.6718,-0.6732,-0.6753,-0.6769,-0.6799,-0.6821,-0.6848,-0.6866,-0.6887,-0.6891,-0.6891,-0.6882,-0.687,-0.6876,-0.6911,-0.6892,-0.6892,-0.6892,-0.6893,-0.6893,-0.6535,-0.6543,-0.6571,-0.6591,-0.6611,-0.6631,-0.6642,-0.6665,-0.6684,-0.6711,-0.6729,-0.6749,-0.6776,-0.6814,-0.6831,-0.6847,-0.6856,-0.6856,-0.6856,-0.6855,-0.6852,-0.6868,-0.6852,-0.6852,-0.6852,-0.6852,-0.6853,0,-0.651,-0.6529,-0.6548,-0.6577,-0.6593,-0.661,-0.6635,-0.6647,-0.6665,-0.6688,-0.6707,-0.6731,-0.6752,-0.6782,-0.6805,-0.6812,-0.6822,-0.6817,-0.6817,-0.682,-0.6843,-0.684,-0.6809,-0.6809,-0.6809,-0.6809,-0.6809,-0.6809,-0.6499,-0.6513,-0.653,-0.6555,-0.6574,-0.6594,-0.6606,-0.6624,-0.6643,-0.6669,-0.6686,-0.6705,-0.6731,-0.6757,-0.6777,-0.6785,-0.6792,-0.6784,-0.6795,-0.6815,-0.6819,-0.6823,-0.682,-0.6785,-0.6785,-0.6771,-0.6771,-0.677]}]]